sat.trackr.live / text

‹ back to catalog

STARLINK-3090

NORAD 49132 · 2021-082C

PAYLOAD ACTIVE UNKNOWN

§ Identity

Operator
Country
US
Launch date
2021-09-14
Launch site
AFWTR
Launch vehicle
Mass (kg)
RCS (m²)

Purposes: comms

External: N2YO · Heavens-Above · Gunter

§ Orbital elements

Epoch: 2026-09-20T02:39:18.286848Z

Period
96.11 min
Inclination
70.0005°
Eccentricity
0.0002696
Mean motion
14.98339601 rev/d
Perigee alt
570.2 km
Apogee alt
573.9 km
Semi-major
6,950.2 km
B*
1.2164e-4
RAAN
164.1264°
Arg perigee
268.4221°
Mean anomaly
91.6629°
Rev number
27,510

§ Raw data

STARLINK-30901 49132U 21082C   26263.11062832  .00001359  00000+0  12164-3 0  99982 49132  70.0005 164.1264 0002696 268.4221  91.6629 14.98339601275107

JSON: /api/v1/satellites/49132 · /tle

For live sub-satellite position, see the globe view (requires WebGL).

§ Visibility from observer

Set your observer location to see the next 7 days of passes ≥ 10°. The values pass through the URL so the page stays shareable.

No JS? Fill the form by hand. The geolocation button needs JavaScript.